Simultaneous Nadir Overpasses (SNOs) Predictions

Prediction of SNOs between METOP-B and NOAA-19 Satellite Orbit:

Table of predicted SNOs for the next 14.0 days since TLE Epoch: 3/9/2024
Index Date (METOP-B) Time (METOP-B) Lat,Lon (METOP-B) SZA (METOP-B ) Date (NOAA-19) Time (NOAA-19) Lat,Lon (NOAA-19) SZA (NOAA-19 ) Distance(km) Time Diff (sec)
1 03/17/2024 08:04:57 79.47, 74.33 80.81 03/17/2024 08:03:56 79.46, 74.23 80.78 2.24 61
2 03/17/2024 08:55:37 -79.52,-117.95 99.15 03/17/2024 08:54:48 -79.53,-117.86 99.14 2.26 49
3 03/17/2024 09:46:15 79.59, 49.97 80.94 03/17/2024 09:45:50 79.59, 49.95 80.93 0.42 25
4 03/17/2024 10:36:56 -79.60,-142.58 99.06 03/17/2024 10:36:44 -79.59,-142.70 99.08 2.52 12
5 03/17/2024 11:27:34 79.67, 25.35 81.03 03/17/2024 11:27:45 79.68, 25.41 81.04 1.42 11
6 03/17/2024 12:18:14 -79.72,-166.92 98.93 03/17/2024 12:18:38 -79.72,-166.95 98.93 0.71 24
7 03/17/2024 13:08:52 79.79, 1.03 81.16 03/17/2024 13:09:39 79.80, 1.18 81.19 3.25 47



Historial Predications of SNOs between METOP-B and NOAA-19
